Terug naar catalogus

STARLINK-32291

ActiefCommunicatieVLEO
NORAD 62442·PAYLOAD·🇺🇸 United States

Gelanceerd Dec 29, 2024 vanaf Vandenberg Space Force Base

Loading…

Volgende Passages (komende 24 uur)

TLE

VersSource: CelesTrak SupGP

Epoch: Sep 15, 2026, 03:42 UTC

1 62442C 24251L   26258.15465278  .00003944  00000+0  11654-3 0  2580
2 62442  53.1587 174.6170 0001310  86.4962 338.1655 15.34383841    17

Volg STARLINK-32291 in realtime met AllMySat

Download on the App Store